This demonstration page uses our WeatherBlox Daily Observations layout. Learn more.

Left ArrowRight Arrow

Hourly Observations for April 16, 2020

Temp ( °F °C ) Dew Point ( °F °C ) Humidity (%) Winds ( mph kmh ) Pressure ( in mb ) Visibility ( mi km ) Precip ( " mm )
12:51 am 00:51 Clear 48 8.9 17 -8.3 29 29 E 5 7 29.87 1011 10 16.0934 0 0
1:51 am 01:51 Clear 46 7.8 16 -8.9 30 30 ESE 3 6 29.85 1011 10 16.0934 0 0
2:51 am 02:51 Clear 43 6.1 16 -8.9 34 34 NE 3 6 29.87 1012 10 16.0934 0 0
3:51 am 03:51 Clear 41 5 16 -8.9 36 36 SSE 6 9 29.88 1012 10 16.0934 0 0
4:51 am 04:51 Clear 41 5 18 -7.8 39 39 SE 6 9 29.89 1012 10 16.0934 0 0
5:51 am 05:51 Sunny 40 4.4 18 -7.8 41 41 ESE 3 6 29.9 1013 10 16.0934 0 0
6:51 am 06:51 Sunny 48 8.9 20 -6.7 33 33 SSE 5 7 29.91 1013 10 16.0934 0 0
7:51 am 07:51 Sunny 56 13.3 23 -5 28 28 SSE 5 7 29.92 1013 10 16.0934 0 0
8:51 am 08:51 Sunny 65 18.3 20 -6.7 18 18 VRB 6 9 29.9 1013 10 16.0934 0 0
9:51 am 09:51 Sunny 69 20.6 19 -7.2 15 15 SE 5 7 29.9 1012 10 16.0934 0 0
10:51 am 10:51 Sunny 73 22.8 17 -8.3 12 12 N 3 6 29.88 1012 10 16.0934 0 0
11:51 am 11:51 Sunny 75 23.9 17 -8.3 11 11 VRB 3 6 29.85 1011 10 16.0934 0 0
12:51 pm 12:51 Sunny 78 25.6 17 -8.3 10 10 VRB 3 6 29.84 1010 10 16.0934 0 0
1:51 pm 13:51 Sunny 79 26.1 17 -8.3 10 10 VRB 6 9 29.81 1010 10 16.0934 0 0
2:51 pm 14:51 Sunny 81 27.2 18 -7.8 9 9 NW 9 15 29.79 1009 10 16.0934 0 0
3:51 pm 15:51 Sunny 81 27.2 18 -7.8 9 9 W 5 7 29.77 1008 10 16.0934 0 0
4:51 pm 16:51 Sunny 81 27.2 18 -7.8 9 9 W 3 6 29.77 1008 10 16.0934 0 0
5:51 pm 17:51 Sunny 81 27.2 14 -10 8 8 WNW 14 22 29.76 1008 10 16.0934 0 0
6:51 pm 18:51 Clear 75 23.9 15 -9.4 10 10 WNW 13 20 29.78 1008 10 16.0934 0 0
7:51 pm 19:51 Clear 71 21.7 16 -8.9 12 12 NW 12 19 29.79 1009 10 16.0934 0 0
8:51 pm 20:51 Clear 69 20.6 16 -8.9 13 13 NW 12 19 29.8 1009 10 16.0934 0 0
9:51 pm 21:51 Clear 63 17.2 16 -8.9 16 16 WNW 9 15 29.83 1010 10 16.0934 0 0
10:51 pm 22:51 Clear 61 16.1 16 -8.9 17 17 WNW 3 6 29.82 1010 10 16.0934 0 0
11:51 pm 23:51 Clear 58 14.4 19 -7.2 22 22 S 7 11 29.84 1010 10 16.0934 0 0

Powered by AerisWeather